Вернуться в каталог

SL-8 DEB

АктивенLEO
NORAD 21420·DEBRIS·🇷🇺 Russia

Запущен Jun 11, 1991 с Plesetsk Cosmodrome

Loading…

Ближайшие Пролёты (ближайшие 24 часа)

TLE

СвежийSource: Space-Track

Эпоха: Sep 14, 2026, 13:06 UTC

1 21420U 91041C   26257.54610931  .00000723  00000-0  20326-3 0  9993
2 21420  74.0649 156.5646 0003147  73.5993 346.9900 14.47643394848528

Отслеживайте SL-8 DEB в реальном времени с AllMySat

Download on the App Store